DW5678 Kavala GR current weather conditions

sailwx.info

Wind from 023

Air temperature 23.9° C
Dewpoint 18.7° C

Last reported at 2015-Sep-01 00:45 UTC.
Time now 2015-Sep-01 01:57 UTC

Location: N 40°56' E 024°24'.
View on Google Maps.

See reports from other nearby stations

  
Tides and Currents Weather Stations Pressure Air Temp Water Temp Dewpoint Dewpoint Depression Visibility Wind Speed Wind Dir Waves Ship Positions
date/time (UTC)wind fromknots sea level pressurealtimeterstation pressurevisibilityair tempwater tempwave heightnotes
2015-Sep-01 00:45 023 23.9
2015-Sep-01 00:30 014 23.9
2015-Sep-01 00:15 034 0 gusting 5 23.9
2015-Sep-01 00:00 037 1 gusting 5 24.4
2015-Aug-31 23:45 040 24.4
2015-Aug-31 23:30 045 1 gusting 6 25.0
2015-Aug-31 23:15 051 1 gusting 5 25.6
2015-Aug-31 23:00 030 2 gusting 6 25.6
2015-Aug-31 22:45 034 1 gusting 4 26.1
2015-Aug-31 22:30 355 26.1
2015-Aug-31 22:15 355 26.1
2015-Aug-31 22:00 355 0 gusting 0 26.7
2015-Aug-31 21:45 355 26.7
2015-Aug-31 21:30 355 26.1
2015-Aug-31 21:15 355 26.1
2015-Aug-31 21:00 355 26.1
2015-Aug-31 20:45 005 0 gusting 1 26.1
2015-Aug-31 20:30 046 26.7
2015-Aug-31 20:15 046 26.1
2015-Aug-31 20:00 266 26.7
2015-Aug-31 19:45 266 26.1
2015-Aug-31 19:30 266 26.7
2015-Aug-31 19:15 266 27.2
2015-Aug-31 19:00 266 27.2
2015-Aug-31 18:45 208 27.2
2015-Aug-31 18:30 208 26.7
2015-Aug-31 18:15 208 26.7
2015-Aug-31 18:00 208 26.7
2015-Aug-31 17:45 208 26.7
2015-Aug-31 17:30 208 27.2
2015-Aug-31 17:15 208 27.2
2015-Aug-31 17:00 208 27.2
2015-Aug-31 16:45 208 27.2
2015-Aug-31 16:30 208 27.2
2015-Aug-31 16:15 208 27.2
2015-Aug-31 16:00 208 27.2
2015-Aug-31 15:45 222 27.2
2015-Aug-31 15:30 217 27.8
2015-Aug-31 15:15 240 27.8
2015-Aug-31 15:00 230 0 gusting 6 27.8
2015-Aug-31 14:45 218 0 gusting 4 28.3
2015-Aug-31 14:30 175 28.9
2015-Aug-31 14:15 166 28.9
2015-Aug-31 14:00 216 0 gusting 6 28.3
2015-Aug-31 13:45 206 0 gusting 4 29.4
2015-Aug-31 13:30 219 1 gusting 6 30.0
2015-Aug-31 13:15 193 1 gusting 6 31.1
2015-Aug-31 13:00 155 0 gusting 5 31.1
2015-Aug-31 12:45 154 0 gusting 5 30.6
2015-Aug-31 12:30 134 1 gusting 5 30.6
2015-Aug-31 12:15 126 0 gusting 4 30.6
2015-Aug-31 12:00 214 1 gusting 5 30.6
2015-Aug-31 11:45 165 0 gusting 4 30.6
2015-Aug-31 11:30 133 2 gusting 5 30.6
2015-Aug-31 11:15 233 1 gusting 5 30.0
2015-Aug-31 11:00 138 0 gusting 5 29.4
2015-Aug-31 10:45 228 1 gusting 6 29.4
2015-Aug-31 10:30 140 2 gusting 5 30.0
2015-Aug-31 10:15 071 0 gusting 8 29.4
2015-Aug-31 10:00 083 1 gusting 6 29.4
2015-Aug-31 09:45 142 1 gusting 6 28.9
2015-Aug-31 09:30 129 1 gusting 6 28.9
2015-Aug-31 09:15 185 30.0
2015-Aug-31 09:00 138 1 gusting 5 28.9
2015-Aug-31 08:45 136 1 gusting 5 28.3
2015-Aug-31 08:30 201 0 gusting 6 28.9
2015-Aug-31 08:15 196 27.8
2015-Aug-31 08:00 229 0 gusting 4 27.8
2015-Aug-31 07:45 142 1 gusting 4 27.2
2015-Aug-31 07:30 213 0 gusting 4 27.2
2015-Aug-31 07:15 224 0 gusting 4 27.8
2015-Aug-31 07:00 213 1 gusting 5 27.2
2015-Aug-31 06:45 218 28.3
2015-Aug-31 06:30 229 2 gusting 4 27.2
2015-Aug-31 06:15 220 1 gusting 2 27.2
2015-Aug-31 06:00 236 27.2
2015-Aug-31 05:45 236 0 gusting 2 27.2
2015-Aug-31 05:30 019 27.2
2015-Aug-31 05:15 355 26.7
2015-Aug-31 05:00 26.1
2015-Aug-31 04:45 26.7
2015-Aug-31 04:30 26.1
2015-Aug-31 04:15 27.2
2015-Aug-31 04:00 005 0 gusting 1 27.2
2015-Aug-31 03:45 005 26.7
2015-Aug-31 03:30 005 26.7
2015-Aug-31 03:15 005 26.7
2015-Aug-31 03:00 005 26.7
2015-Aug-31 02:45 005 1 gusting 2 26.7
2015-Aug-31 02:30 011 26.7
2015-Aug-31 02:15 011 26.7
2015-Aug-31 02:00 011 26.1
2015-Aug-31 01:45 011 26.7
2015-Aug-31 01:30 011 26.7
2015-Aug-31 01:15 012 0 gusting 2 26.7
2015-Aug-31 01:00 011 26.7
2015-Aug-31 00:45 015 26.7
2015-Aug-31 00:30 005 0 gusting 2 26.7
2015-Aug-31 00:15 011 26.7
2015-Aug-31 00:00 011 27.2
2015-Aug-30 23:45 011 27.2
2015-Aug-30 23:30 011 27.8
2015-Aug-30 23:15 011 27.8
2015-Aug-30 23:00 011 27.8
2015-Aug-30 22:45 011 27.8
2015-Aug-30 22:30 011 0 gusting 1 27.8
2015-Aug-30 22:15 011 27.8
2015-Aug-30 22:00 011 27.8
2015-Aug-30 21:45 011 27.8
2015-Aug-30 21:30 011 28.3
2015-Aug-30 21:15 011 28.3
2015-Aug-30 21:00 011 28.3
2015-Aug-30 20:45 011 28.9
2015-Aug-30 20:30 011 29.4
2015-Aug-30 20:15 011 28.9
2015-Aug-30 20:00 009 28.9
2015-Aug-30 19:45 011 28.9
2015-Aug-30 19:30 012 28.9
2015-Aug-30 19:15 012 28.9
2015-Aug-30 19:00 013 28.9
2015-Aug-30 18:45 013 28.3
2015-Aug-30 18:30 013 28.3
2015-Aug-30 18:15 013 28.9
2015-Aug-30 18:00 013 28.9
2015-Aug-30 17:45 032 0 gusting 1 28.9
2015-Aug-30 17:15 072 28.9
2015-Aug-30 17:00 063 28.9
2015-Aug-30 16:45 032 30.0
2015-Aug-30 16:30 048 30.0
2015-Aug-30 16:15 082 30.0
2015-Aug-30 16:00 082 30.0
2015-Aug-30 15:45 082 30.0
2015-Aug-30 15:30 149 30.0
2015-Aug-30 15:15 149 1 gusting 2 30.0
2015-Aug-30 15:00 161 0 gusting 2 30.0
2015-Aug-30 14:45 151 0 gusting 2 30.0
2015-Aug-30 14:30 153 1 gusting 4 29.4
2015-Aug-30 14:15 199 0 gusting 4 30.0
2015-Aug-30 14:00 211 0 gusting 2 30.6
2015-Aug-30 13:45 120 0 gusting 2 30.0
2015-Aug-30 13:30 250 0 gusting 5 30.0
2015-Aug-30 13:15 227 1 gusting 5 29.4
2015-Aug-30 13:00 216 1 gusting 6 30.0
2015-Aug-30 12:45 198 31.1
2015-Aug-30 12:30 211 0 gusting 2 31.7
2015-Aug-30 12:15 221 30.6
2015-Aug-30 12:00 211 0 gusting 5 30.0
2015-Aug-30 11:45 225 0 gusting 6 30.0
2015-Aug-30 11:30 214 1 gusting 6 30.6
2015-Aug-30 11:15 240 3 gusting 6 32.2
2015-Aug-30 11:00 139 1 gusting 6 31.7
2015-Aug-30 10:45 147 1 gusting 5 31.1
2015-Aug-30 10:30 225 1 gusting 6 33.3
2015-Aug-30 10:15 241 2 gusting 6 33.3
2015-Aug-30 10:00 164 2 gusting 6 33.3
2015-Aug-30 09:45 269 1 gusting 7 32.8
2015-Aug-30 09:30 229 1 gusting 6 32.2
2015-Aug-30 09:15 248 3 gusting 6 31.7
2015-Aug-30 09:00 296 1 gusting 6 31.7
2015-Aug-30 08:45 280 3 gusting 7 31.1
2015-Aug-30 08:30 246 2 gusting 6 30.6
2015-Aug-30 08:15 115 2 gusting 11 30.0
2015-Aug-30 08:00 314 2 gusting 7 30.6
2015-Aug-30 07:45 295 1 gusting 6 30.0
2015-Aug-30 07:30 140 2 gusting 7 29.4
2015-Aug-30 07:15 249 2 gusting 11 28.9
2015-Aug-30 07:00 346 7 gusting 17 28.3
2015-Aug-30 06:45 212 6 gusting 13 27.8
2015-Aug-30 06:30 071 4 gusting 12 26.7
2015-Aug-30 06:15 320 6 gusting 15 26.7
2015-Aug-30 06:00 340 6 gusting 13 26.7
2015-Aug-30 05:45 333 4 gusting 12 26.7
2015-Aug-30 05:30 019 3 gusting 8 26.7
2015-Aug-30 05:15 158 0 gusting 7 27.8
2015-Aug-30 05:00 334 2 gusting 6 27.8
2015-Aug-30 04:45 158 1 gusting 7 26.7
2015-Aug-30 04:30 008 2 gusting 7 27.2
2015-Aug-30 04:15 351 4 gusting 10 27.2
2015-Aug-30 04:00 315 1 gusting 8 27.8
2015-Aug-30 03:45 001 4 gusting 11 28.3
2015-Aug-30 03:30 322 3 gusting 7 28.9
2015-Aug-30 03:15 349 4 gusting 10 28.9
2015-Aug-30 03:00 341 4 gusting 8 28.9
2015-Aug-30 02:45 330 4 gusting 11 28.9
2015-Aug-30 02:30 014 6 gusting 12 28.9
2015-Aug-30 02:15 320 6 gusting 13 28.9
2015-Aug-30 02:00 003 4 gusting 10 28.3
2015-Aug-30 01:45 049 5 gusting 7 28.3
2015-Aug-30 01:30 346 3 gusting 6 28.9
2015-Aug-30 01:15 300 2 gusting 6 28.3
2015-Aug-30 01:00 331 2 gusting 6 28.3